| time (UTC) | temp C | wind direction | speed KPH | gust KPH | rain 1hr cm | rain 24hr cm | rain mn cm | humidity % | barometer mb |
| 20260508083034 | 16 | 80 | 14.5 | 22.5 | 0.00 | 0.00 | 0.00 | 71 | 1010.4 |
| 20260508081529 | 16 | 84 | 8.0 | 19.3 | 0.00 | 0.00 | 0.00 | 72 | 1010.5 |
| 20260508080020 | 16 | 37 | 6.4 | 17.7 | 0.00 | 0.00 | 0.00 | 73 | 1010.6 |
| 20260508074504 | 15 | 67 | 4.8 | 16.1 | 0.00 | 0.00 | 0.00 | 74 | 1010.6 |
| 20260508073009 | 15 | 71 | 8.0 | 19.3 | 0.00 | 0.00 | 0.00 | 74 | 1010.5 |
| 20260508071512 | 15 | 77 | 6.4 | 14.5 | 0.00 | 0.00 | 0.00 | 75 | 1010.3 |
| 20260508070018 | 14 | 49 | 8.0 | 17.7 | 0.00 | 0.00 | 0.00 | 76 | 1010.2 |
| 20260508064529 | 13 | 67 | 4.8 | 12.9 | 0.00 | 0.00 | 0.00 | 77 | 1010.2 |
| 20260508063003 | 13 | 44 | 1.6 | 12.9 | 0.00 | 0.00 | 0.00 | 78 | 1010.0 |
| 20260508061510 | 13 | 61 | 4.8 | 12.9 | 0.00 | 0.00 | 0.00 | 78 | 1009.9 |
| 20260508060014 | 13 | 63 | 3.2 | 8.0 | 0.00 | 0.00 | 0.00 | 78 | 1009.9 |
| 20260508054521 | 13 | 80 | 4.8 | 11.3 | 0.00 | 0.00 | 0.00 | 78 | 1009.7 |
| 20260508053005 | 13 | 46 | 4.8 | 11.3 | 0.00 | 0.00 | 0.00 | 77 | 1009.6 |
| 20260508051508 | 13 | 46 | 3.2 | 8.0 | 0.00 | 0.00 | 0.00 | 77 | 1009.6 |
| 20260508050014 | 13 | 55 | 4.8 | 12.9 | 0.00 | 0.00 | 0.00 | 77 | 1009.6 |
| 20260508044518 | 13 | 51 | 6.4 | 11.3 | 0.00 | 0.00 | 0.00 | 76 | 1009.6 |
| 20260508043021 | 13 | 57 | 3.2 | 8.0 | 0.00 | 0.00 | 0.00 | 74 | 1009.5 |
| 20260508041510 | 13 | 34 | 3.2 | 8.0 | 0.00 | 0.00 | 0.00 | 75 | 1009.2 |
| 20260508040011 | 13 | 36 | 3.2 | 4.8 | 0.00 | 0.00 | 0.00 | 75 | 1009.1 |
| 20260508034524 | 13 | 36 | 1.6 | 3.2 | 0.00 | 0.00 | 0.00 | 76 | 1009.3 |
| 20260508033025 | 13 | 35 | 0.0 | 0.0 | 0.00 | 0.00 | 0.00 | 75 | 1009.4 |
| 20260508031525 | 13 | 35 | 0.0 | 3.2 | 0.00 | 0.00 | 0.00 | 75 | 1009.3 |
| 20260508030016 | 14 | 35 | 0.0 | 6.4 | 0.00 | 0.00 | 0.00 | 75 | 1009.4 |
| 20260508024521 | 14 | 73 | 0.0 | 3.2 | 0.00 | 0.00 | 0.00 | 74 | 1009.5 |
| 20260508023017 | 13 | 69 | 1.6 | 3.2 | 0.00 | 0.00 | 0.00 | 73 | 1009.8 |
| 20260508021531 | 13 | 69 | 1.6 | 3.2 | 0.00 | 0.00 | 0.00 | 72 | 1009.8 |
| 20260508020025 | 14 | 69 | 3.2 | 4.8 | 0.00 | 0.00 | 0.00 | 71 | 1009.9 |
| 20260508014514 | 14 | 71 | 0.0 | 6.4 | 0.00 | 0.00 | 0.00 | 71 | 1010.2 |
| 20260508013017 | 14 | 85 | 3.2 | 6.4 | 0.00 | 0.00 | 0.00 | 71 | 1010.3 |
| 20260508011530 | 14 | 226 | 0.0 | 1.6 | 0.00 | 0.00 | 0.00 | 71 | 1010.6 |
| 20260508010037 | 14 | 226 | 0.0 | 0.0 | 0.00 | 0.00 | 0.00 | 71 | 1010.3 |
| 20260508004510 | 14 | 226 | 0.0 | 0.0 | 0.00 | 0.00 | 0.00 | 71 | 1010.5 |
| 20260508003016 | 14 | 226 | 0.0 | 3.2 | 0.00 | 0.00 | 0.00 | 71 | 1010.7 |
| 20260508001522 | 14 | 226 | 0.0 | 3.2 | 0.00 | 0.00 | 0.00 | 71 | 1010.7 |
| 20260508000025 | 14 | 226 | 0.0 | 3.2 | 0.00 | 0.00 | 0.00 | 71 | 1010.7 |
| 20260507234525 | 14 | 226 | 0.0 | 1.6 | 0.00 | 0.00 | 0.00 | 70 | 1010.8 |
| 20260507233015 | 14 | 226 | 0.0 | 3.2 | 0.00 | 0.00 | 0.00 | 69 | 1010.9 |
| 20260507231519 | 14 | 226 | 0.0 | 3.2 | 0.00 | 0.00 | 0.00 | 69 | 1010.9 |
| 20260507230032 | 14 | 226 | 0.0 | 3.2 | 0.00 | 0.00 | 0.00 | 69 | 1010.7 |
| 20260507224532 | 14 | 225 | 1.6 | 4.8 | 0.00 | 0.00 | 0.00 | 69 | 1010.9 |
| 20260507223052 | 14 | 232 | 1.6 | 4.8 | 0.00 | 0.00 | 0.00 | 69 | 1011.2 |
| 20260507221517 | 14 | 236 | 3.2 | 8.0 | 0.00 | 0.00 | 0.00 | 69 | 1011.2 |
| 20260507220021 | 15 | 207 | 3.2 | 6.4 | 0.00 | 0.00 | 0.00 | 68 | 1011.4 |
| 20260507214525 | 15 | 210 | 3.2 | 8.0 | 0.00 | 0.00 | 0.00 | 68 | 1011.6 |
| 20260507213026 | 15 | 201 | 4.8 | 12.9 | 0.00 | 0.00 | 0.00 | 68 | 1011.5 |
| 20260507211528 | 15 | 227 | 4.8 | 14.5 | 0.00 | 0.00 | 0.00 | 68 | 1011.5 |
| 20260507210019 | 15 | 186 | 6.4 | 11.3 | 0.00 | 0.00 | 0.00 | 66 | 1011.2 |
| 20260507204525 | 15 | 194 | 6.4 | 12.9 | 0.00 | 0.00 | 0.00 | 67 | 1011.3 |
| 20260507203034 | 15 | 219 | 4.8 | 12.9 | 0.00 | 0.00 | 0.00 | 67 | 1011.3 |
| 20260507201528 | 15 | 200 | 4.8 | 11.3 | 0.00 | 0.00 | 0.00 | 67 | 1011.3 |
| 20260507200031 | 15 | 187 | 4.8 | 12.9 | 0.00 | 0.00 | 0.00 | 69 | 1011.1 |
| 20260507194520 | 15 | 219 | 8.0 | 16.1 | 0.00 | 0.00 | 0.00 | 69 | 1011.1 |
| 20260507193039 | 15 | 217 | 4.8 | 17.7 | 0.00 | 0.00 | 0.00 | 70 | 1011.1 |
| 20260507191526 | 15 | 183 | 8.0 | 16.1 | 0.00 | 0.00 | 0.00 | 68 | 1011.1 |
| 20260507190034 | 15 | 192 | 9.7 | 16.1 | 0.00 | 0.00 | 0.00 | 70 | 1011.0 |
| 20260507184516 | 15 | 209 | 9.7 | 16.1 | 0.00 | 0.00 | 0.00 | 67 | 1010.9 |
| 20260507183033 | 15 | 171 | 6.4 | 17.7 | 0.00 | 0.00 | 0.00 | 69 | 1010.7 |
| 20260507181523 | 15 | 186 | 8.0 | 16.1 | 0.00 | 0.00 | 0.00 | 68 | 1010.7 |
| 20260507180026 | 15 | 196 | 6.4 | 17.7 | 0.00 | 0.00 | 0.00 | 68 | 1010.7 |
| 20260507174528 | 16 | 175 | 9.7 | 20.9 | 0.00 | 0.00 | 0.00 | 67 | 1010.7 |
| 20260507173017 | 16 | 189 | 6.4 | 19.3 | 0.00 | 0.00 | 0.00 | 64 | 1010.8 |
| 20260507171516 | 16 | 203 | 9.7 | 20.9 | 0.00 | 0.00 | 0.00 | 64 | 1010.8 |
| 20260507170020 | 16 | 192 | 9.7 | 24.1 | 0.00 | 0.00 | 0.00 | 64 | 1010.7 |
| 20260507164513 | 16 | 234 | 11.3 | 22.5 | 0.00 | 0.00 | 0.00 | 66 | 1010.5 |
| 20260507163017 | 17 | 209 | 14.5 | 25.7 | 0.00 | 0.00 | 0.00 | 61 | 1010.8 |
| 20260507161516 | 17 | 211 | 9.7 | 27.4 | 0.00 | 0.00 | 0.00 | 62 | 1010.8 |
| 20260507160018 | 16 | 202 | 12.9 | 24.1 | 0.00 | 0.00 | 0.00 | 66 | 1010.9 |
| 20260507154522 | 17 | 207 | 12.9 | 24.1 | 0.00 | 0.00 | 0.00 | 63 | 1011.0 |
| 20260507153022 | 17 | 182 | 16.1 | 25.7 | 0.00 | 0.00 | 0.00 | 64 | 1010.9 |
| 20260507151519 | 17 | 203 | 16.1 | 25.7 | 0.00 | 0.00 | 0.00 | 65 | 1010.9 |
| 20260507150019 | 17 | 173 | 12.9 | 27.4 | 0.00 | 0.00 | 0.00 | 66 | 1011.1 |
| 20260507144527 | 17 | 117 | 14.5 | 25.7 | 0.00 | 0.00 | 0.00 | 67 | 1011.1 |
| 20260507143015 | 17 | 187 | 11.3 | 27.4 | 0.00 | 0.00 | 0.00 | 68 | 1011.1 |
| 20260507141520 | 16 | 142 | 14.5 | 24.1 | 0.00 | 0.00 | 0.00 | 67 | 1011.2 |
| 20260507140023 | 17 | 238 | 9.7 | 20.9 | 0.00 | 0.00 | 0.00 | 66 | 1011.3 |
| 20260507134509 | 17 | 230 | 11.3 | 22.5 | 0.00 | 0.00 | 0.00 | 68 | 1011.4 |
| 20260507133012 | 17 | 177 | 9.7 | 24.1 | 0.00 | 0.00 | 0.00 | 66 | 1011.4 |
| 20260507131525 | 17 | 199 | 11.3 | 22.5 | 0.00 | 0.00 | 0.00 | 67 | 1011.4 |
| 20260507130038 | 17 | 159 | 9.7 | 22.5 | 0.00 | 0.00 | 0.00 | 67 | 1011.5 |
| 20260507124521 | 17 | 195 | 8.0 | 19.3 | 0.00 | 0.00 | 0.00 | 68 | 1011.7 |
| 20260507123013 | 17 | 202 | 9.7 | 19.3 | 0.00 | 0.00 | 0.00 | 66 | 1011.7 |
| 20260507121518 | 16 | 205 | 11.3 | 19.3 | 0.00 | 0.00 | 0.00 | 68 | 1011.9 |
| 20260507120032 | 17 | 183 | 8.0 | 17.7 | 0.00 | 0.00 | 0.00 | 66 | 1012.0 |
| 20260507114523 | 17 | 178 | 9.7 | 19.3 | 0.00 | 0.00 | 0.00 | 66 | 1011.9 |
| 20260507113008 | 17 | 261 | 11.3 | 22.5 | 0.00 | 0.00 | 0.00 | 66 | 1012.0 |
| 20260507111512 | 16 | 209 | 8.0 | 17.7 | 0.00 | 0.00 | 0.00 | 67 | 1012.1 |
| 20260507110024 | 16 | 209 | 12.9 | 22.5 | 0.00 | 0.00 | 0.00 | 66 | 1012.1 |
| 20260507104522 | 16 | 169 | 6.4 | 24.1 | 0.00 | 0.00 | 0.00 | 69 | 1012.0 |
| 20260507103027 | 16 | 184 | 9.7 | 14.5 | 0.00 | 0.00 | 0.00 | 67 | 1012.0 |
| 20260507101511 | 16 | 250 | 11.3 | 17.7 | 0.00 | 0.00 | 0.00 | 68 | 1011.9 |
| 20260507100022 | 16 | 202 | 8.0 | 14.5 | 0.00 | 0.00 | 0.00 | 67 | 1011.9 |
| 20260507094523 | 16 | 178 | 6.4 | 12.9 | 0.00 | 0.00 | 0.00 | 66 | 1011.8 |
| 20260507093024 | 16 | 212 | 4.8 | 12.9 | 0.00 | 0.00 | 0.00 | 67 | 1011.7 |
| 20260507091523 | 16 | 232 | 3.2 | 16.1 | 0.00 | 0.00 | 0.00 | 68 | 1011.7 |
| 20260507090015 | 16 | 211 | 8.0 | 16.1 | 0.00 | 0.00 | 0.00 | 71 | 1011.7 |
| 20260507084520 | 15 | 226 | 9.7 | 19.3 | 0.00 | 0.00 | 0.00 | 71 | 1011.6 |